DW5852 Weather Reports


time (UTC)temp
F
wind
direction
speed
knots
gust
knots
rain 1hr
in
rain 24hr
in
rain mn
in
humidity
%
barometer
mb
20260906223737 87 207 0.0 5.2 0.00 0.00 0.00 21 1034.6
20260906223237 87 176 0.0 6.1 0.00 0.00 0.00 21 1034.6
20260906222737 86 236 0.0 4.3 0.00 0.00 0.00 22 1034.6
20260906222237 85 197 0.0 1.7 0.00 0.00 0.00 23 1034.7
20260906221734 85 145 0.0 0.0 0.00 0.00 0.00 22 1034.6
20260906221234 86 205 0.0 5.2 0.00 0.00 0.00 22 1034.6
20260906220737 85 207 0.0 2.6 0.00 0.00 0.00 22 1034.6
20260906220237 85 132 0.0 6.1 0.00 0.00 0.00 23 1034.5
20260906215734 85 253 0.0 0.0 0.00 0.00 0.00 23 1034.5
20260906215234 85 261 0.0 0.0 0.00 0.00 0.00 24 1034.5
20260906214734 85 165 0.0 0.0 0.00 0.00 0.00 24 1034.6
20260906214234 84 166 0.0 0.0 0.00 0.00 0.00 24 1034.7
20260906213734 84 165 0.0 0.0 0.00 0.00 0.00 24 1034.8
20260906213234 84 167 0.0 2.6 0.00 0.00 0.00 24 1034.8
20260906212737 85 126 0.0 5.2 0.00 0.00 0.00 24 1034.8
20260906212234 85 204 0.0 0.0 0.00 0.00 0.00 23 1034.8
20260906211734 86 249 0.0 0.0 0.00 0.00 0.00 23 1034.7
20260906211234 86 215 0.0 0.0 0.00 0.00 0.00 24 1034.8
20260906210734 85 76 0.0 1.7 0.00 0.00 0.00 24 1034.7
20260906210234 84 232 0.0 1.7 0.00 0.00 0.00 24 1034.8
20260906205734 84 32 0.0 0.0 0.00 0.00 0.00 23 1034.8
20260906205237 84 241 0.0 4.3 0.00 0.00 0.00 23 1034.9
20260906204734 85 137 0.0 5.2 0.00 0.00 0.00 23 1034.9
20260906204237 85 210 0.0 4.3 0.00 0.00 0.00 23 1034.9
20260906203734 85 155 0.0 0.0 0.00 0.00 0.00 23 1034.9
20260906203234 85 270 0.0 1.7 0.00 0.02 0.00 23 1034.9
20260906202733 86 10 0.0 0.0 0.00 0.07 0.00 23 1034.8
20260906202234 86 243 0.0 0.0 0.00 0.12 0.00 23 1034.9
20260906201737 86 122 0.0 4.3 0.00 0.18 0.00 22 1034.9
20260906201237 85 44 0.0 4.3 0.00 0.21 0.00 23 1034.9
20260906200733 86 58 3.5 7.8 0.00 0.21 0.00 24 1034.8
20260906200234 85 318 0.0 3.5 0.00 0.21 0.00 22 1034.8
20260906195733 85 82 0.0 0.0 0.00 0.21 0.00 22 1034.8
20260906195236 87 129 0.0 0.0 0.00 0.21 0.00 22 1034.8
20260906194733 86 163 0.0 0.0 0.00 0.21 0.00 23 1034.9
20260906194233 85 169 0.0 2.6 0.00 0.21 0.00 22 1034.9
20260906193734 85 136 0.0 0.9 0.00 0.21 0.00 23 1034.9
20260906193233 84 117 0.0 3.5 0.00 0.21 0.00 23 1034.9
20260906192733 84 158 0.0 2.6 0.00 0.21 0.00 24 1034.9
20260906192237 83 185 0.0 0.0 0.00 0.21 0.00 24 1034.9
20260906191733 81 184 0.0 0.0 0.00 0.21 0.00 26 1035.0
20260906191233 81 61 0.0 7.8 0.00 0.21 0.00 24 1035.0
20260906190737 81 115 0.0 0.0 0.00 0.21 0.00 27 1034.9
20260906190237 81 35 0.0 0.0 0.00 0.21 0.00 26 1035.0
20260906185734 81 74 0.0 4.3 0.00 0.21 0.00 26 1035.0
20260906185233 82 291 0.0 9.6 0.00 0.21 0.00 24 1035.1
20260906184734 83 74 0.0 7.0 0.00 0.21 0.00 25 1035.0
20260906184236 82 338 0.0 0.0 0.00 0.21 0.00 26 1035.1
20260906183736 81 89 0.0 3.5 0.00 0.21 0.00 27 1035.2
20260906183236 80 345 0.0 5.2 0.00 0.21 0.00 27 1035.2
20260906182733 80 262 0.0 10.4 0.00 0.21 0.00 27 1035.2
20260906182233 80 77 0.9 6.1 0.00 0.21 0.00 27 1035.3
20260906181733 80 41 0.0 6.1 0.00 0.21 0.00 28 1035.3
20260906181237 81 98 1.7 7.8 0.00 0.21 0.00 27 1035.3
20260906180733 80 77 0.0 7.8 0.00 0.21 0.00 29 1035.3
20260906180233 80 45 0.0 5.2 0.00 0.21 0.00 27 1035.3
20260906175737 80 143 0.0 6.1 0.00 0.21 0.00 30 1035.3
20260906175233 79 86 0.0 6.1 0.00 0.21 0.00 29 1035.3
20260906174736 78 336 0.0 7.0 0.00 0.21 0.00 30 1035.4
20260906174234 79 135 0.0 7.0 0.00 0.21 0.00 30 1035.3
20260906173733 79 139 0.0 0.0 0.00 0.21 0.00 31 1035.3
20260906173236 79 68 0.0 1.7 0.00 0.21 0.00 31 1035.3
20260906172737 79 20 0.0 1.7 0.00 0.21 0.00 32 1035.4
20260906172233 78 322 0.0 2.6 0.00 0.21 0.00 32 1035.3
20260906171737 77 70 0.9 3.5 0.00 0.21 0.00 33 1035.4
20260906171237 76 51 0.0 3.5 0.00 0.21 0.00 33 1035.4
20260906170733 76 63 0.9 1.7 0.00 0.21 0.00 34 1035.4
20260906170236 74 286 0.0 2.6 0.00 0.21 0.00 37 1035.5
20260906165736 74 35 0.0 0.0 0.00 0.21 0.00 36 1035.5
20260906165237 74 20 0.0 0.9 0.00 0.21 0.00 36 1035.6
20260906164736 74 77 0.0 0.0 0.00 0.21 0.00 38 1035.4
20260906164234 74 122 0.0 5.2 0.00 0.21 0.00 35 1035.5
20260906163736 74 52 5.2 7.0 0.00 0.21 0.00 35 1035.5
20260906163233 75 89 0.0 3.5 0.00 0.21 0.00 34 1035.5
20260906162737 75 70 0.0 0.0 0.00 0.21 0.00 35 1035.5
20260906162233 75 71 0.0 0.0 0.00 0.21 0.00 36 1035.5
20260906161733 75 148 0.0 0.0 0.00 0.21 0.00 36 1035.4
20260906161236 75 135 0.0 0.0 0.00 0.21 0.00 36 1035.3
20260906160736 73 106 0.0 0.0 0.00 0.21 0.00 39 1035.3
20260906160237 72 95 0.0 0.0 0.00 0.21 0.00 39 1035.4
20260906155736 72 74 0.0 0.0 0.00 0.21 0.00 39 1035.3
20260906155233 71 77 0.0 0.0 0.00 0.21 0.00 41 1035.3
20260906154737 71 68 0.0 0.0 0.00 0.21 0.00 41 1035.3
20260906154233 71 89 0.0 0.0 0.00 0.21 0.00 42 1035.3
20260906153733 70 27 0.0 0.0 0.00 0.21 0.00 43 1035.4
20260906153234 70 78 0.0 0.0 0.00 0.21 0.00 42 1035.4
20260906152736 70 84 0.0 0.0 0.00 0.21 0.00 42 1035.3
20260906152233 69 110 0.0 0.0 0.00 0.21 0.00 44 1035.3
20260906151736 69 58 0.0 0.0 0.00 0.21 0.00 43 1035.4
20260906151233 69 72 0.0 0.0 0.00 0.21 0.00 44 1035.5
20260906150733 68 86 0.0 0.0 0.00 0.21 0.00 44 1035.5
20260906150237 68 82 0.0 0.0 0.00 0.21 0.00 44 1035.4
20260906145733 68 113 0.0 0.0 0.00 0.21 0.00 46 1035.4
20260906145233 67 84 0.0 0.0 0.00 0.21 0.00 46 1035.4
20260906144734 67 73 0.0 0.0 0.00 0.21 0.00 45 1035.4
20260906144233 68 70 0.0 0.0 0.00 0.21 0.00 44 1035.4
20260906143736 68 177 0.0 0.0 0.00 0.21 0.00 47 1035.3
20260906143233 68 104 0.0 0.0 0.00 0.21 0.00 48 1035.3
20260906142737 68 89 0.0 0.0 0.00 0.21 0.00 48 1035.3
20260906142236 67 256 0.0 0.0 0.00 0.21 0.00 52 1035.2
20260906141737 64 256 0.0 0.0 0.00 0.21 0.00 54 1035.2
20260906141237 64 256 0.0 0.0 0.00 0.21 0.00 56 1035.2
20260906140733 63 87 0.0 0.0 0.00 0.21 0.00 54 1035.2
20260906140233 63 87 0.0 0.0 0.00 0.21 0.00 55 1035.2
20260906135736 64 87 0.0 0.0 0.00 0.21 0.00 52 1035.3
20260906135236 64 87 0.0 0.0 0.00 0.21 0.00 51 1035.3
20260906134736 66 87 0.0 0.0 0.00 0.21 0.00 49 1035.3
20260906134237 65 87 0.0 0.0 0.00 0.21 0.00 49 1035.2
20260906133736 64 87 0.0 0.0 0.00 0.21 0.00 49 1035.2
20260906133236 64 87 0.0 0.0 0.00 0.21 0.00 48 1035.3
20260906132736 65 107 0.0 0.0 0.00 0.21 0.00 45 1035.2
20260906132236 65 246 0.0 0.0 0.00 0.21 0.00 45 1035.2
20260906131736 64 246 0.0 0.0 0.00 0.21 0.00 46 1035.2
20260906131236 63 246 0.0 0.0 0.00 0.21 0.00 45 1035.2
20260906130736 63 246 0.0 0.0 0.00 0.21 0.00 46 1035.2
20260906130236 64 246 0.0 0.0 0.00 0.21 0.00 46 1035.2
20260906125736 64 246 0.0 0.0 0.00 0.21 0.00 45 1035.1
20260906125236 63 246 0.0 0.0 0.00 0.21 0.00 46 1035.2
20260906124736 64 246 0.0 0.0 0.00 0.21 0.00 46 1035.2
20260906124233 64 247 0.0 0.0 0.00 0.21 0.00 46 1035.2
20260906123736 64 247 0.0 0.0 0.00 0.21 0.00 46 1035.3
20260906123236 64 246 0.0 0.0 0.00 0.21 0.00 47 1035.2
20260906122733 64 246 0.0 0.0 0.00 0.21 0.00 48 1035.3
20260906122233 64 246 0.0 0.0 0.00 0.21 0.00 49 1035.4
20260906121736 64 246 0.0 0.0 0.00 0.21 0.00 48 1035.4
20260906121233 63 250 0.0 0.0 0.00 0.21 0.00 49 1035.4
20260906120737 63 245 0.0 0.0 0.00 0.21 0.00 50 1035.5
20260906120233 63 235 0.0 0.0 0.00 0.21 0.00 50 1035.5
20260906115733 63 262 0.0 0.0 0.00 0.21 0.00 50 1035.5
20260906115236 63 244 0.0 0.0 0.00 0.21 0.00 50 1035.7
20260906114734 63 248 0.0 0.0 0.00 0.21 0.00 51 1035.7
20260906114236 63 253 0.0 0.0 0.00 0.21 0.00 51 1035.8
20260906113733 63 250 0.0 0.0 0.00 0.21 0.00 51 1035.9
20260906113236 63 250 0.0 0.0 0.00 0.21 0.00 51 1035.8
20260906112733 63 250 0.0 0.0 0.00 0.21 0.00 50 1035.9
20260906112236 63 250 0.0 0.0 0.00 0.21 0.00 50 1035.9
20260906111737 63 240 0.0 0.0 0.00 0.21 0.00 50 1036.0
20260906111236 63 240 0.0 0.0 0.00 0.21 0.00 51 1036.0
20260906110736 63 240 0.0 0.0 0.00 0.21 0.00 51 1036.0
20260906110236 63 241 0.0 0.0 0.00 0.21 0.00 51 1036.2
20260906105737 63 240 0.0 0.0 0.00 0.21 0.00 51 1036.2
20260906105233 63 98 0.0 0.0 0.00 0.21 0.00 51 1036.3
20260906104733 62 105 0.0 0.0 0.00 0.21 0.00 52 1036.3
20260906104233 61 106 0.0 0.0 0.00 0.21 0.00 53 1036.3
20260906103733 62 105 0.0 0.0 0.00 0.21 0.00 53 1036.4
20260906103233 62 106 0.0 0.0 0.00 0.21 0.00 52 1036.4
20260906102736 63 105 0.0 0.0 0.00 0.21 0.00 51 1036.4
20260906102233 63 106 0.0 0.0 0.00 0.21 0.00 50 1036.4
20260906101737 64 106 0.0 0.0 0.00 0.21 0.00 49 1036.3
20260906101236 64 105 0.0 0.0 0.00 0.21 0.00 49 1036.3
20260906100736 64 106 0.0 0.0 0.00 0.21 0.00 49 1036.4
20260906100233 64 105 0.0 0.0 0.00 0.21 0.00 49 1036.5
20260906095736 64 107 0.0 0.0 0.00 0.21 0.00 50 1036.3
20260906095233 65 101 0.0 0.0 0.00 0.21 0.00 50 1036.4
20260906094733 65 100 0.0 0.0 0.00 0.21 0.00 48 1036.4
20260906094233 66 73 0.0 0.0 0.00 0.21 0.00 48 1036.6
20260906093733 66 98 0.0 0.0 0.00 0.21 0.00 48 1036.5
20260906093233 66 98 0.0 0.0 0.00 0.21 0.00 47 1036.5
20260906092733 66 93 0.0 0.0 0.00 0.21 0.00 46 1036.4
20260906092233 66 93 0.0 0.0 0.00 0.21 0.00 46 1036.4
20260906091737 66 122 0.0 0.0 0.00 0.21 0.00 46 1036.4
20260906091233 66 107 0.0 0.0 0.00 0.21 0.00 46 1036.5
20260906090733 67 107 0.0 0.0 0.00 0.21 0.00 45 1036.4
20260906090233 67 80 0.0 0.0 0.00 0.21 0.00 44 1036.4
20260906085733 68 238 0.0 0.0 0.00 0.21 0.00 41 1036.4
20260906085236 68 238 0.0 0.0 0.00 0.21 0.00 41 1036.4
20260906084734 68 250 0.0 0.0 0.00 0.21 0.00 42 1036.4
20260906084233 67 258 0.0 0.0 0.00 0.21 0.00 42 1036.4
20260906083736 68 251 0.0 0.0 0.00 0.21 0.00 43 1036.5
20260906083233 68 252 0.0 0.0 0.00 0.21 0.00 42 1036.5
20260906082733 68 233 0.0 0.0 0.00 0.21 0.00 42 1036.4
20260906082233 68 258 0.0 0.0 0.00 0.21 0.00 42 1036.5
20260906081733 68 249 0.0 0.0 0.00 0.21 0.00 42 1036.5
20260906081233 68 260 0.0 0.0 0.00 0.21 0.00 42 1036.5
20260906080736 68 263 0.0 0.0 0.00 0.21 0.00 44 1036.6
20260906080236 68 258 0.0 0.0 0.00 0.21 0.00 44 1036.6
20260906075736 68 246 0.0 0.0 0.00 0.21 0.00 44 1036.7
20260906075236 68 253 0.0 0.0 0.00 0.21 0.00 45 1036.7
20260906074736 68 245 0.0 0.0 0.00 0.21 0.00 45 1036.8
20260906074233 68 243 0.0 0.0 0.00 0.21 0.00 45 1037.0
20260906073736 68 269 0.0 0.0 0.00 0.21 0.00 45 1037.0
20260906073233 68 259 0.0 0.0 0.00 0.21 0.00 45 1037.0
20260906072733 67 253 0.0 0.0 0.00 0.21 0.00 46 1037.2
20260906072236 67 235 0.0 0.0 0.00 0.21 0.00 46 1037.2
20260906071736 67 242 0.0 0.0 0.00 0.21 0.00 46 1037.3
20260906071236 67 239 0.0 0.0 0.00 0.21 0.00 48 1037.3
20260906070733 67 270 0.0 0.0 0.00 0.21 0.00 48 1037.4
20260906070236 67 248 0.0 0.0 0.00 0.21 0.00 48 1037.5
20260906065733 67 249 0.0 0.0 0.00 0.21 0.00 47 1037.5
20260906065236 67 239 0.0 0.0 0.00 0.21 0.00 47 1037.7
20260906064736 67 250 0.0 0.0 0.00 0.21 0.00 48 1037.6
20260906064234 67 243 0.0 0.0 0.00 0.21 0.00 47 1037.7
20260906063736 68 248 0.0 0.0 0.00 0.21 0.00 46 1037.7
20260906063236 68 246 0.0 0.0 0.00 0.21 0.00 45 1037.8
20260906062734 68 246 0.0 0.0 0.00 0.21 0.00 47 1037.8
20260906062236 67 246 0.0 0.0 0.00 0.21 0.00 46 1038.0
20260906061733 67 245 0.0 0.0 0.00 0.21 0.00 46 1037.9
20260906061234 67 245 0.0 0.0 0.00 0.21 0.00 46 1037.9
20260906060736 68 245 0.0 0.0 0.00 0.21 0.00 46 1038.0
20260906060233 68 250 0.0 0.0 0.00 0.21 0.00 45 1038.0
20260906055736 68 250 0.0 0.0 0.00 0.21 0.00 45 1038.1
20260906055233 68 250 0.0 0.0 0.00 0.21 0.00 44 1038.0
20260906054733 68 250 0.0 0.0 0.00 0.21 0.00 44 1038.1
20260906054233 68 250 0.0 0.0 0.00 0.21 0.00 45 1038.1
20260906053733 68 136 0.0 0.0 0.00 0.21 0.00 46 1038.1
20260906053236 68 131 0.0 0.0 0.00 0.21 0.00 46 1038.1
20260906052736 68 131 0.0 0.0 0.00 0.21 0.00 44 1038.2
20260906052233 68 131 0.0 0.0 0.00 0.21 0.00 44 1038.2
20260906051733 69 131 0.0 0.0 0.00 0.21 0.00 43 1038.2
20260906051237 69 131 0.0 0.0 0.00 0.21 0.00 43 1038.2
20260906050736 70 131 0.0 0.0 0.00 0.21 0.00 42 1038.2
20260906050233 70 131 0.0 0.0 0.00 0.21 0.00 42 1038.1
20260906045736 70 139 0.0 0.0 0.00 0.21 0.00 43 1038.1
20260906045236 70 156 0.0 0.0 0.00 0.21 0.00 43 1038.1
20260906044736 70 156 0.0 0.0 0.00 0.21 0.00 42 1038.1
20260906044233 71 156 0.0 0.0 0.00 0.21 0.00 42 1038.2
20260906043733 70 95 0.0 0.0 0.00 0.21 0.00 42 1038.2
20260906043236 70 155 0.0 0.0 0.00 0.21 0.00 42 1038.1
20260906042736 70 155 0.0 0.0 0.00 0.21 0.00 41 1038.2
20260906042233 70 125 0.0 2.6 0.00 0.21 0.00 42 1038.1
20260906041736 70 126 0.0 0.0 0.00 0.21 0.00 42 1038.1
20260906041236 70 86 0.0 0.0 0.00 0.21 0.00 42 1038.0
20260906040736 71 98 0.0 0.0 0.00 0.21 0.00 41 1038.1
20260906040236 72 26 0.0 0.0 0.00 0.21 0.00 39 1038.0
20260906035733 72 241 0.0 0.0 0.00 0.21 0.00 39 1037.8
20260906035236 72 256 0.0 0.0 0.00 0.21 0.00 39 1037.9
20260906034736 72 252 0.0 0.0 0.00 0.21 0.00 39 1037.9
20260906034233 72 258 0.0 0.0 0.00 0.21 0.00 39 1037.9
20260906033736 72 242 0.0 4.3 0.00 0.21 0.00 39 1037.8
20260906033236 72 262 0.0 0.0 0.00 0.21 0.00 39 1037.7
20260906032733 72 255 0.0 0.0 0.00 0.21 0.00 39 1037.7
20260906032233 72 255 0.0 0.0 0.00 0.21 0.00 39 1037.7
20260906031736 72 269 0.0 0.9 0.00 0.21 0.00 39 1037.7
20260906031236 72 255 0.0 4.3 0.00 0.21 0.00 39 1037.6
20260906030736 72 241 0.0 0.0 0.00 0.21 0.00 38 1037.5
20260906030233 73 249 0.0 0.0 0.00 0.21 0.00 38 1037.4
20260906025733 72 270 0.0 0.0 0.00 0.21 0.00 38 1037.3
20260906025236 72 271 0.0 0.0 0.00 0.21 0.00 39 1037.2
20260906024736 72 268 0.0 0.0 0.00 0.21 0.00 39 1037.2
20260906024233 73 223 0.0 0.0 0.00 0.21 0.00 39 1037.1
20260906023736 73 269 0.0 0.0 0.00 0.21 0.00 38 1036.9
20260906023236 73 238 0.0 3.5 0.00 0.21 0.00 38 1036.9
20260906022736 74 234 0.0 4.3 0.00 0.21 0.00 37 1036.9
20260906022236 74 258 0.0 2.6 0.00 0.21 0.00 37 1036.9
20260906021736 74 257 0.0 0.0 0.00 0.21 0.00 37 1036.9
20260906021236 74 268 0.0 0.0 0.00 0.21 0.00 37 1036.9
20260906020736 74 262 0.0 0.0 0.00 0.21 0.00 37 1036.8
20260906020236 74 304 0.0 1.7 0.00 0.21 0.00 37 1036.7
20260906015736 74 255 0.0 2.6 0.00 0.21 0.00 39 1036.8
20260906015236 73 260 0.0 0.0 0.00 0.21 0.00 41 1036.6
20260906014733 73 257 0.0 0.0 0.00 0.21 0.00 43 1036.7
20260906014236 73 224 0.0 0.0 0.00 0.21 0.00 43 1036.6
20260906013733 74 225 0.0 0.0 0.00 0.21 0.00 42 1036.6
20260906013233 74 224 0.0 0.0 0.00 0.21 0.00 43 1036.5
20260906012736 75 288 0.0 0.0 0.00 0.21 0.00 41 1036.5
20260906012236 76 288 0.0 0.0 0.00 0.21 0.00 39 1036.5
20260906011736 77 288 0.0 0.0 0.00 0.21 0.00 37 1036.6
20260906011233 77 288 0.0 0.0 0.00 0.21 0.00 37 1036.5
20260906010733 78 288 0.0 0.0 0.00 0.21 0.00 36 1036.3
20260906010236 78 288 0.0 0.0 0.00 0.21 0.00 35 1036.3
20260906005736 78 314 0.0 0.0 0.00 0.21 0.00 37 1036.4
20260906005233 78 313 0.0 0.0 0.00 0.21 0.00 39 1036.2
20260906004733 78 357 0.0 0.0 0.00 0.21 0.00 39 1036.1
20260906004233 78 357 0.0 0.0 0.00 0.21 0.00 39 1036.1
20260906003733 78 335 0.0 0.0 0.00 0.21 0.00 37 1036.0
20260906003236 78 357 0.0 0.0 0.00 0.21 0.00 36 1036.0
20260906002736 78 339 0.0 0.0 0.00 0.21 0.00 37 1035.9
20260906002233 78 339 0.0 0.0 0.00 0.21 0.00 39 1035.8
20260906001733 78 339 0.0 0.0 0.00 0.21 0.00 38 1035.7
20260906001236 78 338 0.0 0.0 0.00 0.21 0.00 37 1035.6
20260906000736 78 38 0.0 0.0 0.00 0.21 0.00 37 1035.6
20260906000236 78 39 0.0 0.0 0.00 0.21 0.00 37 1035.5
20260905235736 78 38 0.0 0.0 0.00 0.21 0.00 37 1035.5
20260905235233 78 67 0.0 0.0 0.00 0.21 0.00 39 1035.4
20260905234733 78 20 0.0 0.0 0.00 0.21 0.00 39 1035.4
20260905234236 78 336 0.0 0.0 0.00 0.21 0.00 39 1035.3
20260905233736 78 335 0.0 0.0 0.00 0.21 0.00 39 1035.2
20260905233233 78 310 0.0 0.0 0.00 0.21 0.00 39 1035.1
20260905232733 78 18 0.0 0.0 0.00 0.21 0.00 40 1035.2
20260905232236 78 23 0.0 0.0 0.00 0.21 0.00 40 1035.1
20260905231736 78 14 0.0 0.0 0.00 0.21 0.00 40 1035.1
20260905231233 79 87 0.0 1.7 0.00 0.21 0.00 39 1035.0
20260905230733 79 70 0.0 0.0 0.00 0.21 0.00 38 1035.0
20260905230236 79 98 0.0 0.0 0.00 0.21 0.00 42 1035.0
20260905225736 79 66 0.0 0.0 0.00 0.21 0.00 41 1035.0
20260905225233 78 79 0.0 0.0 0.00 0.21 0.00 42 1034.9
20260905224733 78 30 0.0 0.0 0.00 0.21 0.00 42 1035.0
20260905224233 77 347 0.0 0.0 0.00 0.21 0.00 44 1034.9